lat,lon,time
43.42191897,-73.71141649,2017-06-10 13:46:09
43.42250745,-73.71107926,2017-06-10 13:51:11
43.42705458,-73.7081881,2017-06-10 14:01:09
43.42886514,-73.70681642,2017-06-10 14:06:09
43.43095572,-73.70528955,2017-06-10 14:11:09
43.43248363,-73.70389416,2017-06-10 14:16:09
43.43449279,-73.70221408,2017-06-10 14:21:09
43.43623049,-73.7006605,2017-06-10 14:26:10
43.43708045,-73.69929905,2017-06-10 14:31:09
43.43871109,-73.69765336,2017-06-10 14:36:10
43.44049376,-73.69588121,2017-06-10 14:41:10
43.44365654,-73.69332636,2017-06-10 14:51:04
43.44559356,-73.6916263,2017-06-10 14:56:03
43.44918009,-73.68915356,2017-06-10 15:05:54
43.4531895,-73.6876147,2017-06-10 15:15:40
43.4550462,-73.68674745,2017-06-10 15:20:42
43.45694358,-73.68537228,2017-06-10 15:25:41
43.46465875,-73.68270629,2017-06-10 15:46:35
43.46861458,-73.6810045,2017-06-10 15:55:39
43.47079549,-73.68038532,2017-06-10 16:00:41
43.47468103,-73.67898213,2017-06-10 16:10:37
43.47657341,-73.67798586,2017-06-10 16:15:39
43.48050877,-73.67550725,2017-06-10 16:25:38
43.48255876,-73.67411516,2017-06-10 16:30:37
43.48417362,-73.67349135,2017-06-10 16:35:37
43.48609916,-73.67199208,2017-06-10 16:40:38
43.4883006,-73.67072946,2017-06-10 16:45:37
43.493298,-73.66787198,2017-06-10 16:57:12
43.49660116,-73.66598728,2017-06-10 17:05:36
43.49846971,-73.66492443,2017-06-10 17:10:40
43.50078115,-73.66354779,2017-06-10 17:15:39
43.50247123,-73.66222837,2017-06-10 17:20:40
43.50672502,-73.65946392,2017-06-10 17:30:39
43.50840233,-73.6585394,2017-06-10 17:35:39
43.51226121,-73.65655319,2017-06-10 17:45:37
43.51442119,-73.65532427,2017-06-10 17:50:37
43.51626547,-73.65402077,2017-06-10 17:55:37
43.51845338,-73.65245575,2017-06-10 18:00:37
43.52025456,-73.6514849,2017-06-10 18:05:36
43.52416247,-73.64841898,2017-06-10 18:15:27
43.52811032,-73.64532535,2017-06-10 18:25:19
43.53217967,-73.64274235,2017-06-10 18:35:10
43.53607412,-73.64004486,2017-06-10 18:45:01
43.53821591,-73.63823828,2017-06-10 18:50:01
43.54001344,-73.63678506,2017-06-10 18:55:02
43.54230811,-73.63518719,2017-06-10 19:00:02
43.54376009,-73.63451266,2017-06-10 19:05:01
43.54809073,-73.63178444,2017-06-10 19:14:51
43.55004897,-73.63066779,2017-06-10 19:19:51
43.55212447,-73.62912893,2017-06-10 19:24:51
43.55401285,-73.62804998,2017-06-10 19:29:50
43.55708607,-73.62547374,2017-06-10 19:39:48
43.55915936,-73.62385402,2017-06-10 19:44:47
43.56092741,-73.62231276,2017-06-10 19:49:48
43.56272263,-73.62068342,2017-06-10 19:54:47
43.56452201,-73.61894637,2017-06-10 19:59:47
43.56581581,-73.61808582,2017-06-10 20:04:48
43.56794437,-73.61605128,2017-06-10 20:09:47
43.56962401,-73.61429027,2017-06-10 20:14:48
43.57148978,-73.61185731,2017-06-10 20:19:47
43.57266261,-73.60986827,2017-06-10 20:24:50
43.58984479,-73.58519308,2017-06-10 21:20:31
43.59371101,-73.58216467,2017-06-10 21:29:47
43.59495302,-73.58082561,2017-06-10 21:34:48
43.59689538,-73.57911044,2017-06-10 21:39:50
43.60022783,-73.57624297,2017-06-10 21:49:48
43.60205641,-73.57468804,2017-06-10 21:54:49
43.6036683,-73.57327512,2017-06-10 21:59:50
43.60633994,-73.57069483,2017-06-10 22:09:48
43.60822015,-73.56897147,2017-06-10 22:14:48
43.61001815,-73.56731308,2017-06-10 22:19:48
43.6117751,-73.56541826,2017-06-10 22:24:49
43.61345541,-73.56343684,2017-06-10 22:29:49
43.61472746,-73.56221169,2017-06-10 22:34:49
43.61652734,-73.56065072,2017-06-10 22:39:48
43.61800402,-73.55948805,2017-06-10 22:44:48
43.61970422,-73.55782824,2017-06-10 22:49:48
43.62181537,-73.55581971,2017-06-10 22:54:48
43.62374703,-73.55404487,2017-06-10 22:59:48
43.62497183,-73.55292101,2017-06-10 23:04:48
43.62709388,-73.55108616,2017-06-10 23:09:50
43.63110952,-73.54821984,2017-06-10 23:19:48
43.6330518,-73.54653484,2017-06-10 23:24:47
43.63486054,-73.54511507,2017-06-10 23:29:47
43.63602169,-73.54406073,2017-06-10 23:34:49
43.63819949,-73.54225832,2017-06-10 23:40:31
43.64032696,-73.54018343,2017-06-10 23:45:43
43.64212739,-73.53828323,2017-06-10 23:50:53
43.6442179,-73.53576822,2017-06-10 23:56:03
43.64538793,-73.53355069,2017-06-11 00:01:22
43.64657546,-73.53214793,2017-06-11 00:06:29
43.64793792,-73.52941733,2017-06-11 00:11:41
43.64969939,-73.52668574,2017-06-11 00:16:50
43.65111562,-73.52423908,2017-06-11 00:22:04
43.65254122,-73.52236065,2017-06-11 00:27:15
43.65392778,-73.5200507,2017-06-11 00:32:14
43.65483446,-73.51883753,2017-06-11 00:38:14
43.65664921,-73.51646705,2017-06-11 00:44:15
43.65843264,-73.51435335,2017-06-11 00:49:22
43.66013416,-73.51287167,2017-06-11 00:54:47
43.66222204,-73.51126376,2017-06-11 01:00:29
43.66315553,-73.51078029,2017-06-11 01:05:38
43.66364765,-73.51089254,2017-06-11 01:10:48
43.66520823,-73.50886015,2017-06-11 01:15:56
43.6677582,-73.50740757,2017-06-11 01:21:04
43.67073505,-73.50646713,2017-06-11 01:27:13
43.67261059,-73.50578097,2017-06-11 01:32:13
43.67490288,-73.50488407,2017-06-11 01:37:20
43.67745552,-73.50399187,2017-06-11 01:42:28
43.67981619,-73.50357049,2017-06-11 01:47:37
43.68223998,-73.50269943,2017-06-11 01:53:37
43.68491065,-73.50108124,2017-06-11 01:59:25
43.68736662,-73.49958168,2017-06-11 02:04:47
43.68892854,-73.4986251,2017-06-11 02:10:03
43.69188314,-73.49702997,2017-06-11 02:15:51
43.69373856,-73.49599696,2017-06-11 02:20:53
43.69624341,-73.49482544,2017-06-11 02:26:01
43.6980738,-73.49365907,2017-06-11 02:31:29
43.69975501,-73.49308771,2017-06-11 02:36:39
43.70207416,-73.49217528,2017-06-11 02:42:30
43.70411804,-73.49124935,2017-06-11 02:47:38
43.70639343,-73.49035199,2017-06-11 02:52:46
43.70894856,-73.48921891,2017-06-11 02:58:26
43.71049621,-73.48902045,2017-06-11 03:03:36
43.71267182,-73.48771454,2017-06-11 03:09:23
43.71467437,-73.48675992,2017-06-11 03:14:26
43.71714115,-73.48578284,2017-06-11 03:19:33
43.71907669,-73.48488291,2017-06-11 03:25:02
43.72004198,-73.48430893,2017-06-11 03:30:48
43.72150732,-73.48380616,2017-06-11 03:35:57
43.72371611,-73.48271614,2017-06-11 03:41:05
43.72547315,-73.48129858,2017-06-11 03:46:14
43.72739094,-73.48034607,2017-06-11 03:51:20
43.72945083,-73.47921494,2017-06-11 03:57:23
43.73060818,-73.47861904,2017-06-11 04:02:30
43.73198151,-73.47833258,2017-06-11 04:07:39
43.73405281,-73.4777467,2017-06-11 04:13:28
43.73576008,-73.47706114,2017-06-11 04:18:37
43.73750619,-73.47614395,2017-06-11 04:24:14
43.73974102,-73.47573238,2017-06-11 04:29:49
43.74051078,-73.47530742,2017-06-11 04:35:22
43.74264859,-73.47484031,2017-06-11 04:41:08
43.74460195,-73.47446214,2017-06-11 04:46:54
43.746923,-73.47423591,2017-06-11 04:52:41
43.74897244,-73.47404124,2017-06-11 04:57:51
43.75003126,-73.47405078,2017-06-11 05:03:28
43.75191437,-73.47373193,2017-06-11 05:08:29
43.75400854,-73.47344043,2017-06-11 05:13:36
43.75592797,-73.47359216,2017-06-11 05:18:49
43.75817207,-73.47324903,2017-06-11 05:24:02
43.76046014,-73.47323981,2017-06-11 05:29:11
43.76169701,-73.47328278,2017-06-11 05:34:42
43.7641342,-73.47347366,2017-06-11 05:40:01
43.76700457,-73.47365507,2017-06-11 05:46:09
43.76925583,-73.47361782,2017-06-11 05:51:08
43.7709558,-73.47373916,2017-06-11 05:56:16
43.77269482,-73.47368316,2017-06-11 06:01:24
43.77413011,-73.47411496,2017-06-11 06:07:26
43.77592389,-73.47299026,2017-06-11 06:12:36
43.77777866,-73.47164354,2017-06-11 06:18:14
43.77926522,-73.47011428,2017-06-11 06:24:04
43.78086045,-73.4686713,2017-06-11 06:29:13
43.78202073,-73.46809383,2017-06-11 06:34:21
43.78292975,-73.4673611,2017-06-11 06:39:29
43.78485532,-73.46487524,2017-06-11 06:44:39
43.78639466,-73.46329216,2017-06-11 06:50:02
43.78765843,-73.46198933,2017-06-11 06:55:31
43.78891413,-73.46050816,2017-06-11 07:00:39
43.79027174,-73.45872848,2017-06-11 07:05:48
43.79164101,-73.45647353,2017-06-11 07:11:40
43.79331132,-73.45460248,2017-06-11 07:17:25
43.79477946,-73.45295298,2017-06-11 07:22:36
43.79652167,-73.45104489,2017-06-11 07:28:43
43.7972802,-73.4498757,2017-06-11 07:34:47
43.79951548,-73.44767122,2017-06-11 07:40:28
43.80030383,-73.44676056,2017-06-11 07:45:36
43.80218068,-73.44490894,2017-06-11 07:50:44
43.80338776,-73.44321174,2017-06-11 07:56:02
43.80484567,-73.4418845,2017-06-11 08:01:29
43.80740919,-73.44059619,2017-06-11 08:06:36
43.80857284,-73.4377317,2017-06-11 08:12:02
43.80891055,-73.43624629,2017-06-11 08:17:29
43.80949926,-73.43358091,2017-06-11 08:22:39
43.81196182,-73.43210134,2017-06-11 08:27:50
43.81479858,-73.43181005,2017-06-11 08:33:28
43.81603337,-73.43169081,2017-06-11 08:39:23
43.81815485,-73.43201378,2017-06-11 08:44:45
43.8198692,-73.43212961,2017-06-11 08:49:46
43.82207124,-73.43008741,2017-06-11 08:54:45
43.82238821,-73.42833458,2017-06-11 08:59:45
43.8256491,-73.42627227,2017-06-11 09:09:45
43.82599811,-73.42617409,2017-06-11 09:14:46
